Location: Cherry Springs State Park
(41.6616°N, 77.8240°W)
Time: 23:30:16
(UTC-05:00)

Daily predictions for brighter satellites

Satellite Brightness Start Highest point End
(mag) Time Altitude Azimuth Time Altitude Azimuth Time Altitude Azimuth
Cosmos 1842 Rocket 4.4 17:34:10 10° NNW 17:38:30 56° W 17:42:46 10° S
Meteor 1-21 Rocket 4.4 17:35:20 10° S 17:41:12 78° E 17:47:10 10° NNE
BREEZE M DEB (TANK) 4.0 17:43:37 10° WSW 17:47:53 87° NNW 18:05:37 10° ENE
AQUARIUS 4.4 17:45:19 10° S 17:49:48 79° WSW 17:54:20 10° NNW
USA 161 3.9 17:49:32 10° NW 17:50:31 12° WNW 17:51:30 10° W
Cosmos 1674 4.2 17:47:33 10° SSW 17:51:05 38° WNW 17:54:36 10° N
IRS-1A Rocket 4.3 17:46:51 10° SSE 17:52:18 63° ENE 17:57:52 10° N
Cosmos 2366 rocket 4.2 17:46:52 10° N 17:52:54 49° ENE 17:58:51 10° SSE
NOSS 3-4 (A) 4.0 17:47:08 10° NNW 17:53:55 50° NE 18:01:11 10° ESE
NOSS 3-4 (C) 4.0 17:47:14 10° NNW 17:54:01 49° NE 18:01:16 10° ESE
SeaSat 1 3.6 17:50:07 10° S 17:54:53 49° WSW 17:59:41 10° NW
Cosmos 1328 4.3 17:51:56 10° SSE 17:55:41 40° E 17:59:29 10° NNE
Cosmos 1400 Rocket 3.0 17:54:15 10° SSW 17:58:18 78° W 18:02:26 10° N
Tiangong 1 0.3 17:57:04 10° WNW 17:59:33 85° N 18:01:43 12° E
ALOS 2.6 17:56:28 10° SE 18:00:52 44° ENE 18:05:19 10° N
EO 1 Del DPAF 4.2 17:58:08 10° NE 18:01:26 27° E 18:04:43 10° SSE
Cosmos 1766 Rocket 3.8 17:57:24 10° SSE 18:01:30 44° E 18:05:38 10° NNE
Cosmos 1626 2.9 17:58:54 10° SSE 18:02:12 31° E 18:05:32 10° NNE
Landsat 4 4.1 18:03:08 10° NNE 18:06:43 42° E 18:10:15 10° S
Okean 3 Rocket 3.8 18:04:50 10° SSW 18:09:22 78° W 18:13:54 10° N
MOS 1 4.3 18:03:52 10° SSE 18:09:23 59° ENE 18:14:55 10° N
Meteor 2-2 Rocket 4.3 18:03:53 10° N 18:09:32 57° ENE 18:15:05 10° SSE
MONITOR-E 4.3 18:07:22 10° SSE 18:10:17 46° ENE 18:13:14 10° N
NOAA 12 4.2 18:06:54 10° SE 18:11:57 52° ENE 18:17:02 10° N
SKYMED 2 3.5 18:08:45 10° NNE 18:13:05 67° E 18:17:25 10° S
Cosmos 1656 Rocket 3.6 18:07:42 10° NNW 18:13:10 64° ENE 18:18:39 10° SE
Cosmos 2369 Rocket 4.1 18:09:43 10° NW 18:14:47 35° WSW 18:19:52 10° SSW
Cosmos 1703 4.0 18:14:43 10° SSE 18:18:17 33° E 18:21:52 10° NNE
YAOGAN 1 2.8 18:15:52 10° S 18:20:10 73° WSW 18:24:31 10° NNW
Cosmos 1300 3.3 18:16:38 10° NNW 18:20:26 60° W 18:24:11 10° S
Cosmos 1151 Rocket 4.0 18:17:43 10° NNE 18:21:26 26° ENE 18:25:08 10° SE
Cosmos 1943 Rocket 3.4 18:16:58 10° NW 18:22:17 45° WSW 18:27:30 10° S
ERS-2 2.6 18:19:00 10° SE 18:22:25 37° ENE 18:25:51 10° N
Cosmos 864 Rocket 4.5 18:20:24 10° N 18:26:47 85° E 18:33:05 10° S
SL-24 R/B - RUBIN 2 3.5 18:22:25 10° NNW 18:26:58 87° ENE 18:31:16 10° SSE
Cosmos 2058 3.3 18:29:34 10° SSE 18:33:28 40° E 18:36:33 15° NNE
Cosmos 909 Rocket 4.3 18:30:17 10° NNW 18:36:56 47° NE 18:42:13 13° ESE
Thor Agena Rocket 4.4 18:35:28 22° ENE 18:37:21 28° E 18:41:46 10° SSE
BREEZE-M R/B 3.9 18:36:39 10° WNW 18:38:23 21° NNW 18:38:37 20° N
OAO 3 Rocket 4.5 18:36:27 10° WSW 18:40:39 33° S 18:43:58 15° SE
FENGYUN 3A 3.8 18:37:41 10° S 18:43:01 76° WSW 18:48:25 10° NNW
Cosmos 44 3.5 18:40:28 10° SW 18:44:42 59° NW 18:48:02 17° NNE
Cosmos 371 Rocket 3.6 18:40:12 10° S 18:44:43 42° ESE 18:46:37 29° NE
CZ-4 R/B 4.1 18:47:08 10° SSW 18:50:29 23° W 18:53:52 10° NW
Cosmos 1408 Rocket 4.2 18:48:15 10° SSW 18:52:27 55° W 18:56:42 10° N
Cosmos 2151 2.9 18:48:18 10° S 18:52:31 63° E 18:55:25 20° NNE
Cosmos 1515 Rocket 3.4 18:48:27 10° N 18:52:47 63° E 18:57:04 10° SSE
SPOT 3 Rocket 3.9 18:52:38 10° S 18:57:44 67° WSW 19:02:53 10° NNW
ERBS 4.4 18:55:38 10° NNW 18:56:54 17° N 18:56:54 17° N
COSMO-SKYMED 1 4.1 18:57:04 10° N 19:01:03 36° WNW 19:05:00 10° SW
Meteor 1-27 4.3 18:55:53 10° NNW 19:01:37 79° W 19:07:23 10° S
Cosmos 1346 Rocket 3.6 19:00:39 10° NNW 19:04:27 51° W 19:08:13 10° S
Cosmos 1500 Rocket 3.4 19:01:02 10° S 19:05:29 75° E 19:07:50 28° NNE
PKM 3.6 19:03:36 10° NW 19:06:23 71° NE 19:06:37 67° ENE
H-2A R/B 2.9 19:04:41 10° S 19:08:28 73° WSW 19:12:20 10° NNW
COSMOS 2406 3.2 19:04:04 10° SSW 19:09:48 88° WNW 19:13:27 24° NNE
USA 81 3.9 19:04:46 10° S 19:10:02 84° E 19:15:20 10° N
Meteor 2-15 4.3 19:07:53 10° S 19:13:59 76° E 19:20:05 10° NNE
Cosmos 2228 Rocket 3.5 19:11:33 10° NNW 19:16:06 67° W 19:20:38 10° S
Cosmos 1455 2.7 19:14:28 10° NNW 19:18:16 58° W 19:22:00 10° S
Cosmos 2208 Rocket 3.9 19:13:48 10° S 19:19:00 65° ESE 19:19:41 59° ENE
Cosmos 44 Rocket 4.4 19:14:47 10° WSW 19:19:10 38° NW 19:21:34 23° N
FengYun 1-2 T 4.4 19:13:53 10° S 19:19:30 76° WSW 19:25:08 10° NNW
Cosmos 1743 Rocket 4.1 19:15:54 10° SSW 19:20:11 57° W 19:23:39 15° N
Cosmos 1898 Rocket 4.4 19:24:51 10° N 19:28:12 36° N 19:28:12 36° N
Tiangong 1 4.4 19:31:39 10° W 19:31:42 10° W 19:31:42 10° W
GEOS 3 Rocket 3.5 19:35:22 74° ESE 19:35:51 85° NE 19:41:16 10° NW
Meteor 2-15 Rocket 4.4 19:34:45 10° S 19:40:53 81° W 19:47:02 10° N
Cosmos 1821 Rocket 4.2 19:38:10 10° NNW 19:44:17 67° W 19:50:27 10° S
Lacrosse 5 3.3 19:40:16 10° SSW 19:42:43 26° S 19:42:43 26° S
Cosmos 1535 Rocket 4.5 19:39:14 10° N 19:45:23 77° W 19:51:28 10° S
Envisat 4.4 19:51:21 29° NNW 19:51:21 29° NNW 19:53:45 10° NNW
CZ-4C R/B 3.9 20:07:47 10° SSW 20:09:27 22° SSW 20:09:27 22° SSW
